This is the latest recevied weather packets stored in our database for station/object VK6WB. If no packets are shown the sender has not sent any weather packets the latest 10 day(s).
| Time | Temp. | Humidity | Pressure | Rain* | Wind** | Luminosity | Snow |
|---|---|---|---|---|---|---|---|
| 1777974005 | 19.44° C | 57% | 1021 hPa | 0 mm | - | 14 W/m² | - |
| 1777973405 | 20° C | 55% | 1021.1 hPa | 0 mm | - | 14 W/m² | - |
| 1777972804 | 20° C | 54% | 1021 hPa | 0 mm | - | 14 W/m² | - |
| 1777972205 | 20.56° C | 53% | 1020.9 hPa | 0 mm | - | 14 W/m² | - |
| 1777971604 | 21.67° C | 50% | 1020.9 hPa | 0 mm | - | 14 W/m² | - |
| 1777971005 | 22.22° C | 49% | 1020.7 hPa | 0 mm | - | 14 W/m² | - |
| 1777970404 | 22.22° C | 50% | 1020.6 hPa | 0 mm | - | 14 W/m² | - |
| 1777969805 | 22.78° C | 50% | 1020.7 hPa | 0 mm | - | 14 W/m² | - |
| 1777969205 | 22.78° C | 49% | 1020.6 hPa | 0 mm | - | 14 W/m² | - |
| 1777968605 | 22.22° C | 45% | 1020.7 hPa | 0 mm | - | 14 W/m² | - |
| 1777968004 | 24.44° C | 41% | 1020.7 hPa | 0 mm | - | 65 W/m² | - |
| 1777967404 | 24.44° C | 36% | 1020.5 hPa | 0 mm | - | 66 W/m² | - |
| 1777966805 | 24.44° C | 35% | 1020.4 hPa | 0 mm | - | 14 W/m² | - |
| 1777966204 | 25° C | 35% | 1020.4 hPa | 0 mm | - | 65 W/m² | - |
| 1777965604 | 25° C | 35% | 1020.5 hPa | 0 mm | - | 65 W/m² | - |
| 1777965005 | 25° C | 34% | 1020.4 hPa | 0 mm | - | 65 W/m² | - |
| 1777964404 | 25.56° C | 31% | 1020.5 hPa | 0 mm | - | 65 W/m² | - |
| 1777963805 | 25° C | 31% | 1020.4 hPa | 0 mm | - | 65 W/m² | - |
| 1777963204 | 25° C | 32% | 1020.4 hPa | 0 mm | - | 65 W/m² | - |
| 1777962605 | 25° C | 32% | 1020.5 hPa | 0 mm | - | 65 W/m² | - |
| 1777962005 | 25° C | 30% | 1020.4 hPa | 0 mm | - | 65 W/m² | - |
| 1777961404 | 24.44° C | 33% | 1020.5 hPa | 0 mm | - | 65 W/m² | - |
| 1777960805 | 25° C | 32% | 1020.5 hPa | 0 mm | - | 65 W/m² | - |
| 1777960204 | 25° C | 30% | 1020.6 hPa | 0 mm | - | 65 W/m² | - |
| 1777959604 | 23.89° C | 31% | 1020.7 hPa | 0 mm | - | 65 W/m² | - |
* Rain latest hour (hover to see other rain measurements)
** Current wind speed in m/s (hover to see current wind gust speed)